Location: Great Snoring
(52.8667°N, 0.8833°E)
Time: 12:58:57
(UTC+00:00)

Cosmos 1842 - Pass Details

Date: 19 May 2025
Orbit: 440 x 450 km, 82.5° (Epoch: 11 June)

Event Time Altitude Azimuth Distance (km) Brightness Sun altitude
Exits shadow 23:37:34 42° 205° (SSW) 661 3.3 -17.1°
Maximum altitude 23:38:37 76° 282° (WNW) 474 2.9 -17.1°
Drops below altitude 10° 23:42:07 10° 8° (N) 1,602 6.9 -17.1°
Sets 23:44:12 0° 10° (N) 2,481 8.3 -17.1°
